When you browse on this site, cookies collect data to enhance your experience and personalize the content and advertising you see.
Visit our Privacy Policy to learn more. By continuing to use the site, you agree to this use of cookies and data.
  • In Sweden
  • List of Countries
  • For 7 days
  • Water Temperature
  • Satellite Maps
  • Weather Map
  • Weather Widgets
  • user-avatar
    Login

    Hourly Weather Pesochnya

    Today, 18 January, Friday

    Time Temperature Precipitation Wind Pressure Humidity
    00:00 -2°C° 0 mm 7 mps 726 mmHg 88%
    01:00 -2°C° 0 mm 7 mps 726 mmHg 88%
    02:00 -2°C° 0 mm 6 mps 727 mmHg 88%
    03:00 -2°C° 0 mm 6 mps 727 mmHg 88%
    04:00 -3°C° 0 mm 6 mps 727 mmHg 88%
    05:00 -3°C° 0 mm 6 mps 728 mmHg 88%
    06:00 -3°C° 0 mm 6 mps 728 mmHg 88%
    07:00 -3°C° 0 mm 6 mps 729 mmHg 88%
    08:00 -3°C° 0 mm 6 mps 729 mmHg 88%
    09:00 -3°C° 0 mm 6 mps 729 mmHg 88%
    10:00 -2°C° 0 mm 5 mps 730 mmHg 89%
    11:00 -2°C° 0 mm 5 mps 730 mmHg 89%
    12:00 -2°C° 0.1 mm 5 mps 730 mmHg 90%
    13:00 -2°C° 0.1 mm 5 mps 730 mmHg 90%
    14:00 -1°C° 0.1 mm 4 mps 730 mmHg 91%
    15:00 -1°C° 0.5 mm 5 mps 729 mmHg 91%
    16:00 -1°C° 0.5 mm 5 mps 729 mmHg 92%
    17:00 -1°C° 0.5 mm 5 mps 728 mmHg 92%
    18:00 -2°C° 0.3 mm 6 mps 728 mmHg 91%
    19:00 -2°C° 0.3 mm 6 mps 728 mmHg 89%
    20:00 -2°C° 0.3 mm 7 mps 728 mmHg 87%
    21:00 -4°C° 0.3 mm 6 mps 729 mmHg 89%
    22:00 -5°C° 0.3 mm 6 mps 729 mmHg 91%
    23:00 -8°C° 0.3 mm 6 mps 730 mmHg 93%

    Tomorrow, 19 January, Saturday

    Time Temperature Precipitation Wind Pressure Humidity
    00:00 -8°C° 0.2 mm 5 mps 731 mmHg 92%
    01:00 -9°C° 0.2 mm 4 mps 731 mmHg 92%
    02:00 -10°C° 0.2 mm 4 mps 732 mmHg 91%
    03:00 -11°C° 0 mm 4 mps 733 mmHg 92%
    04:00 -12°C° 0 mm 4 mps 734 mmHg 93%
    05:00 -14°C° 0 mm 4 mps 734 mmHg 94%
    06:00 -14°C° 0 mm 4 mps 735 mmHg 94%
    07:00 -14°C° 0 mm 4 mps 735 mmHg 95%
    08:00 -12°C° 0 mm 4 mps 735 mmHg 95%
    09:00 -11°C° 0 mm 4 mps 736 mmHg 93%
    10:00 -12°C° 0 mm 5 mps 736 mmHg 91%
    11:00 -11°C° 0 mm 5 mps 736 mmHg 89%
    12:00 -10°C° 0 mm 5 mps 736 mmHg 88%
    13:00 -10°C° 0 mm 5 mps 737 mmHg 87%
    14:00 -8°C° 0 mm 5 mps 737 mmHg 86%
    15:00 -10°C° 0 mm 5 mps 737 mmHg 87%
    16:00 -10°C° 0 mm 5 mps 737 mmHg 88%
    17:00 -10°C° 0 mm 5 mps 738 mmHg 89%
    18:00 -11°C° 0 mm 5 mps 738 mmHg 89%
    19:00 -10°C° 0 mm 4 mps 738 mmHg 90%
    20:00 -11°C° 0 mm 4 mps 739 mmHg 91%
    21:00 -11°C° 0 mm 4 mps 739 mmHg 91%
    22:00 -11°C° 0 mm 4 mps 739 mmHg 92%
    23:00 -12°C° 0 mm 4 mps 739 mmHg 92%

    Day after tomorrow, 20 January, Sunday

    Time Temperature Precipitation Wind Pressure Humidity
    00:00 -11°C° 0 mm 4 mps 740 mmHg 93%
    01:00 -11°C° 0 mm 4 mps 740 mmHg 93%
    02:00 -10°C° 0 mm 4 mps 740 mmHg 93%
    03:00 -11°C° 0 mm 5 mps 740 mmHg 93%
    04:00 -11°C° 0 mm 5 mps 740 mmHg 92%
    05:00 -11°C° 0 mm 6 mps 739 mmHg 91%
    06:00 -11°C° 0 mm 6 mps 739 mmHg 90%
    07:00 -10°C° 0 mm 6 mps 739 mmHg 89%
    08:00 -10°C° 0 mm 6 mps 739 mmHg 88%
    09:00 -9°C° 0 mm 6 mps 739 mmHg 88%
    10:00 -8°C° 0 mm 7 mps 739 mmHg 87%
    11:00 -8°C° 0 mm 7 mps 738 mmHg 86%
    12:00 -8°C° 0 mm 7 mps 738 mmHg 85%
    13:00 -7°C° 0 mm 7 mps 738 mmHg 85%
    14:00 -7°C° 0 mm 7 mps 737 mmHg 85%
    15:00 -7°C° 0.1 mm 7 mps 737 mmHg 86%
    16:00 -8°C° 0.1 mm 7 mps 737 mmHg 86%
    17:00 -8°C° 0.1 mm 7 mps 737 mmHg 87%
    18:00 -8°C° 0.1 mm 7 mps 737 mmHg 88%
    19:00 -8°C° 0.1 mm 6 mps 737 mmHg 89%
    20:00 -7°C° 0.1 mm 5 mps 737 mmHg 90%
    21:00 -7°C° 0.2 mm 4 mps 737 mmHg 92%
    22:00 -8°C° 0.2 mm 4 mps 737 mmHg 93%
    23:00 -7°C° 0.2 mm 3 mps 737 mmHg 95%

    21 January, Monday

    Time Temperature Precipitation Wind Pressure Humidity
    00:00 -6°C° 0.3 mm 2 mps 737 mmHg 95%
    01:00 -7°C° 0.3 mm 2 mps 737 mmHg 96%
    02:00 -7°C° 0.3 mm 2 mps 737 mmHg 96%
    03:00 -8°C° 0.2 mm 2 mps 737 mmHg 96%
    04:00 -9°C° 0.2 mm 2 mps 737 mmHg 96%
    05:00 -9°C° 0.2 mm 2 mps 737 mmHg 96%
    06:00 -10°C° 0 mm 2 mps 737 mmHg 96%
    07:00 -13°C° 0 mm 2 mps 737 mmHg 96%
    08:00 -14°C° 0 mm 2 mps 737 mmHg 96%
    09:00 -14°C° 0 mm 2 mps 737 mmHg 96%
    10:00 -15°C° 0 mm 3 mps 737 mmHg 95%
    11:00 -15°C° 0 mm 3 mps 737 mmHg 94%
    12:00 -14°C° 0 mm 3 mps 737 mmHg 93%
    13:00 -14°C° 0 mm 3 mps 738 mmHg 92%
    14:00 -15°C° 0 mm 4 mps 738 mmHg 91%
    15:00 -14°C° 0 mm 3 mps 738 mmHg 91%
    16:00 -15°C° 0 mm 3 mps 739 mmHg 92%
    17:00 -15°C° 0 mm 3 mps 739 mmHg 92%
    18:00 -16°C° 0 mm 3 mps 739 mmHg 92%
    19:00 -16°C° 0 mm 3 mps 740 mmHg 93%
    20:00 -17°C° 0 mm 3 mps 740 mmHg 94%
    21:00 -17°C° 0 mm 3 mps 740 mmHg 94%
    22:00 -18°C° 0 mm 3 mps 740 mmHg 95%
    23:00 -18°C° 0 mm 3 mps 741 mmHg 96%

    22 January, Tuesday

    Time Temperature Precipitation Wind Pressure Humidity
    00:00 -19°C° 0 mm 3 mps 741 mmHg 97%
    01:00 -21°C° 0 mm 3 mps 741 mmHg 97%
    02:00 -21°C° 0 mm 3 mps 741 mmHg 98%
    03:00 -21°C° 0 mm 3 mps 741 mmHg 98%
    04:00 -22°C° 0 mm 3 mps 741 mmHg 98%
    05:00 -22°C° 0 mm 3 mps 741 mmHg 98%
    06:00 -22°C° 0 mm 3 mps 742 mmHg 98%
    07:00 -22°C° 0 mm 3 mps 742 mmHg 98%
    08:00 -22°C° 0 mm 3 mps 742 mmHg 98%
    09:00 -21°C° 0 mm 3 mps 742 mmHg 97%
    10:00 -19°C° 0 mm 3 mps 743 mmHg 96%
    11:00 -18°C° 0 mm 3 mps 743 mmHg 95%
    12:00 -18°C° 0 mm 3 mps 743 mmHg 94%
    13:00 -18°C° 0 mm 3 mps 743 mmHg 94%
    14:00 -17°C° 0 mm 3 mps 743 mmHg 94%
    15:00 -19°C° 0 mm 3 mps 743 mmHg 95%
    16:00 -19°C° 0 mm 2 mps 744 mmHg 96%
    17:00 -20°C° 0 mm 2 mps 744 mmHg 98%
    18:00 -21°C° 0 mm 2 mps 744 mmHg 98%
    19:00 -21°C° 0 mm 2 mps 744 mmHg 98%
    20:00 -23°C° 0 mm 2 mps 744 mmHg 99%
    21:00 -23°C° 0 mm 2 mps 744 mmHg 99%
    22:00 -23°C° 0 mm 2 mps 745 mmHg 99%
    23:00 -23°C° 0 mm 2 mps 745 mmHg 99%

    23 January, Wednesday

    Time Temperature Precipitation Wind Pressure Humidity
    00:00 -23°C° 0 mm 2 mps 745 mmHg 98%
    01:00 -23°C° 0 mm 2 mps 745 mmHg 97%
    02:00 -23°C° 0 mm 2 mps 745 mmHg 97%
    03:00 -23°C° 0 mm 2 mps 745 mmHg 96%
    04:00 -21°C° 0 mm 2 mps 744 mmHg 96%
    05:00 -21°C° 0 mm 2 mps 744 mmHg 96%
    06:00 -21°C° 0 mm 2 mps 744 mmHg 97%
    07:00 -20°C° 0 mm 2 mps 745 mmHg 98%
    08:00 -20°C° 0 mm 2 mps 745 mmHg 98%
    09:00 -18°C° 0 mm 2 mps 745 mmHg 97%
    10:00 -17°C° 0 mm 3 mps 745 mmHg 96%
    11:00 -15°C° 0 mm 3 mps 745 mmHg 94%
    12:00 -14°C° 0 mm 3 mps 745 mmHg 94%
    13:00 -14°C° 0 mm 3 mps 745 mmHg 94%
    14:00 -13°C° 0 mm 3 mps 744 mmHg 94%
    15:00 -13°C° 0 mm 3 mps 744 mmHg 94%
    16:00 -13°C° 0 mm 3 mps 745 mmHg 94%
    17:00 -14°C° 0 mm 3 mps 745 mmHg 94%
    18:00 -14°C° 0 mm 3 mps 745 mmHg 94%
    19:00 -15°C° 0 mm 3 mps 745 mmHg 94%
    20:00 -15°C° 0 mm 3 mps 745 mmHg 94%
    21:00 -16°C° 0 mm 3 mps 745 mmHg 95%
    22:00 -17°C° 0 mm 3 mps 745 mmHg 96%
    23:00 -19°C° 0 mm 3 mps 745 mmHg 97%
    Show more